H1 CPF 1 NER 2022 2 5 9 5361 glonass121 H2 1000702 9121 36401 2022 2 5 0 0 0 2022 2 8 23 45 0 900 1 1 0 0 0 H9 10 0 59615 0.00000 0 -10583624.674 -21045097.695 9648760.333 10 0 59615 900.00000 0 -9864324.765 -19859172.738 12508051.487 10 0 59615 1800.00000 0 -8826266.338 -18485669.219 15122960.572 10 0 59615 2700.00000 0 -7464878.981 -16987921.561 17442539.418 10 0 59615 3600.00000 0 -5788948.557 -15430890.520 19421689.517 10 0 59615 4500.00000 0 -3820494.936 -13878408.461 21022040.357 10 0 59615 5400.00000 0 -1594089.839 -12390498.488 22212687.648 10 0 59615 6300.00000 0 844355.234 -11020881.223 22970778.007 10 0 59615 7200.00000 0 3439278.499 -9814773.991 23281930.172 10 0 59615 8100.00000 0 6127562.583 -8807073.619 23140486.694 10 0 59615 9000.00000 0 8840945.700 -8020997.006 22549593.508 10 0 59615 9900.00000 0 11508647.976 -7467233.579 21521108.247 10 0 59615 10800.00000 0 14060103.565 -7143641.839 20075341.436 10 0 59615 11700.00000 0 16427685.644 -7035499.199 18240637.568 10 0 59615 12600.00000 0 18549312.367 -7116291.377 16052805.871 10 0 59615 13500.00000 0 20370827.605 -7349005.379 13554412.947 10 0 59615 14400.00000 0 21848060.077 -7687869.655 10793951.627 10 0 59615 15300.00000 0 22948478.038 -8080467.046 7824902.332 10 0 59615 16200.00000 0 23652373.564 -8470131.241 4704704.774 10 0 59615 17100.00000 0 23953529.799 -8798526.328 1493659.094 10 0 59615 18000.00000 0 23859345.552 -9008301.912 -1746223.319 10 0 59615 18900.00000 0 23390413.708 -9045713.489 -4952398.559 10 0 59615 19800.00000 0 22579571.938 -8863099.430 -8062977.333 10 0 59615 20700.00000 0 21470465.460 -8421111.851 -11017899.179 10 0 59615 21600.00000 0 20115681.269 -7690608.667 -13760072.909 10 0 59615 22500.00000 0 18574530.462 -6654127.803 -16236462.956 10 0 59615 23400.00000 0 16910569.571 -5306881.362 -18399102.095 10 0 59615 24300.00000 0 15188962.390 -3657226.834 -20206012.269 10 0 59615 25200.00000 0 13473790.405 -1726593.454 -21622016.643 10 0 59615 26100.00000 0 11825422.367 451136.116 -22619427.510 10 0 59615 27000.00000 0 10298051.453 2830766.511 -23178596.698 10 0 59615 27900.00000 0 8937502.101 5357409.137 -23288317.070 10 0 59615 28800.00000 0 7779398.210 7968516.728 -22946066.048 10 0 59615 29700.00000 0 6847769.929 10596251.840 -22158084.609 10 0 59615 30600.00000 0 6154158.750 13170093.613 -20939287.952 10 0 59615 31500.00000 0 5697260.277 15619576.177 -19313007.038 10 0 59615 32400.00000 0 5463121.749 17877045.613 -17310563.401 10 0 59615 33300.00000 0 5425888.091 19880320.351 -14970683.043 10 0 59615 34200.00000 0 5549066.835 21575142.699 -12338758.779 10 0 59615 35100.00000 0 5787259.638 22917317.053 -9465973.916 10 0 59615 36000.00000 0 6088287.543 23874442.797 -6408303.621 10 0 59615 36900.00000 0 6395619.393 24427166.548 -3225413.669 10 0 59615 37800.00000 0 6650998.932 24569898.843 20520.973 10 0 59615 38700.00000 0 6797156.753 24310963.398 3266052.894 10 0 59615 39600.00000 0 6780489.064 23672171.760 6447727.725 10 0 59615 40500.00000 0 6553586.333 22687841.475 9503350.907 10 0 59615 41400.00000 0 6077501.307 21403300.304 12373228.223 10 0 59615 42300.00000 0 5323657.512 19872941.613 15001353.086 10 0 59615 43200.00000 0 4275315.225 18157915.564 17336515.289 10 0 59615 44100.00000 0 2928531.636 16323556.235 19333308.017 10 0 59615 45000.00000 0 1292574.270 14436655.792 20953012.652 10 0 59615 45900.00000 0 -610229.338 12562702.607 22164344.238 10 0 59615 46800.00000 0 -2745198.335 10763200.763 22944043.919 10 0 59615 47700.00000 0 -5066530.384 9093183.935 23277308.319 10 0 59615 48600.00000 0 -7519005.411 7599027.191 23158049.571 10 0 59615 49500.00000 0 -10040088.568 6316646.599 22588983.257 10 0 59615 50400.00000 0 -12562343.419 5270159.449 21581544.992 10 0 59615 51300.00000 0 -15016054.268 4471057.816 20155639.597 10 0 59615 52200.00000 0 -17331948.595 3917926.379 18339229.788 10 0 59615 53100.00000 0 -19443907.134 3596712.667 16167774.026 10 0 59615 54000.00000 0 -21291550.435 3481534.985 13683525.638 10 0 59615 54900.00000 0 -22822596.425 3535991.322 10934707.415 10 0 59615 55800.00000 0 -23994893.304 3714912.276 7974577.907 10 0 59615 56700.00000 0 -24778045.780 3966483.183 4860407.161 10 0 59615 57600.00000 0 -25154569.458 4234645.920 1652380.925 10 0 59615 58500.00000 0 -25120527.445 4461679.852 -1587546.487 10 0 59615 59400.00000 0 -24685624.356 4590854.395 -4796829.934 10 0 59615 60300.00000 0 -23872754.817 4569042.982 -7913520.640 10 0 59615 61200.00000 0 -22717025.604 4349189.985 -10877441.552 10 0 59615 62100.00000 0 -21264291.780 3892528.142 -13631329.924 10 0 59615 63000.00000 0 -19569266.698 3170454.097 -16121926.806 10 0 59615 63900.00000 0 -17693283.084 2165983.501 -18300993.826 10 0 59615 64800.00000 0 -15701796.430 874723.884 -20126238.956 10 0 59615 65700.00000 0 -13661732.557 -694677.049 -21562134.280 10 0 59615 66600.00000 0 -11638787.813 -2520628.921 -22580610.346 10 0 59615 67500.00000 0 -9694792.582 -4569241.136 -23161613.623 10 0 59615 68400.00000 0 -7885246.745 -6795487.163 -23293515.556 10 0 59615 69300.00000 0 -6257129.263 -9144845.989 -22973364.037 10 0 59615 70200.00000 0 -4847073.417 -11555356.053 -22206970.603 10 0 59615 71100.00000 0 -3679984.721 -13959999.415 -21008829.420 10 0 59615 72000.00000 0 -2768160.776 -16289319.182 -19401867.082 10 0 59615 72900.00000 0 -2110951.725 -18474162.594 -17417025.520 10 0 59615 73800.00000 0 -1694977.435 -20448435.664 -15092683.588 10 0 59615 74700.00000 0 -1494894.078 -22151753.476 -12473926.593 10 0 59615 75600.00000 0 -1474679.072 -23531873.618 -9611676.429 10 0 59615 76500.00000 0 -1589380.716 -24546808.345 -6561698.519 10 0 59615 77400.00000 0 -1787258.279 -25166524.083 -3383505.102 10 0 59615 78300.00000 0 -2012220.688 -25374154.107 -139177.168 10 0 59615 79200.00000 0 -2206458.342 -25166671.077 3107870.211 10 0 59615 80100.00000 0 -2313153.659 -24554989.453 6294152.631 10 0 59615 81000.00000 0 -2279152.086 -23563492.903 9357383.769 10 0 59615 81900.00000 0 -2057476.962 -22229006.939 12237717.887 10 0 59615 82800.00000 0 -1609578.537 -20599261.519 14878940.407 10 0 59615 83700.00000 0 -907219.314 -18730910.509 17229581.103 10 0 59615 84600.00000 0 66085.794 -16687193.982 19243926.651 10 0 59615 85500.00000 0 1314136.175 -14535344.461 20882911.856 10 0 59616 0.00000 0 2827658.309 -12343848.684 22114872.219 10 0 59616 900.00000 0 4584481.007 -10179680.400 22916144.524 10 0 59616 1800.00000 0 6550262.197 -8105624.109 23271503.705 10 0 59616 2700.00000 0 8679737.875 -6177797.660 23174431.706 10 0 59616 3600.00000 0 10918437.196 -4443479.041 22627213.699 10 0 59616 4500.00000 0 13204791.317 -2939324.819 21640862.939 10 0 59616 5400.00000 0 15472546.811 -1690051.754 20234877.963 10 0 59616 6300.00000 0 17653382.680 -707633.048 18436838.886 10 0 59616 7200.00000 0 19679622.148 8960.999 16281852.342 10 0 59616 8100.00000 0 21486927.300 473470.872 13811857.063 10 0 59616 9000.00000 0 23016866.004 711519.872 11074804.202 10 0 59616 9900.00000 0 24219246.159 759287.671 8123728.540 10 0 59616 10800.00000 0 25054122.401 661742.947 5015728.253 10 0 59616 11700.00000 0 25493393.960 470510.341 1810872.197 10 0 59616 12600.00000 0 25521929.172 241461.454 -1428945.130 10 0 59616 13500.00000 0 25138171.499 32130.634 -4641180.266 10 0 59616 14400.00000 0 24354202.896 -100936.931 -7763827.942 10 0 59616 15300.00000 0 23195262.328 -104794.685 -10736597.455 10 0 59616 16200.00000 0 21698739.195 67446.574 -13502057.321 10 0 59616 17100.00000 0 19912682.568 454412.918 -16006727.823 10 0 59616 18000.00000 0 17893886.724 1084606.507 -18202101.822 10 0 59616 18900.00000 0 15705630.578 1974968.016 -20045575.442 10 0 59616 19800.00000 0 13415162.693 3129923.571 -21501271.566 10 0 59616 20700.00000 0 11091034.222 4540957.966 -22540740.629 10 0 59616 21600.00000 0 8800388.494 6186734.749 -23143525.103 10 0 59616 22500.00000 0 6606318.276 8033761.544 -23297576.108 10 0 59616 23400.00000 0 4565399.649 10037576.506 -22999512.781 10 0 59616 24300.00000 0 2725504.715 12144410.246 -22254717.641 10 0 59616 25200.00000 0 1123984.666 14293257.392 -21077263.845 10 0 59616 26100.00000 0 -213699.953 16418274.170 -19489673.240 10 0 59616 27000.00000 0 -1274843.006 18451403.971 -17522507.325 10 0 59616 27900.00000 0 -2059812.703 20325122.096 -15213796.552 10 0 59616 28800.00000 0 -2581812.429 21975184.605 -12608317.019 10 0 59616 29700.00000 0 -2866091.154 23343264.893 -9756727.091 10 0 59616 30600.00000 0 -2948635.847 24379365.213 -6714579.948 10 0 59616 31500.00000 0 -2874400.971 25043899.080 -3541231.446 10 0 59616 32400.00000 0 -2695150.858 25309354.048 -298665.493 10 0 59616 33300.00000 0 -2467008.002 25161462.046 2949738.472 10 0 59616 34200.00000 0 -2247813.762 24599825.727 6140469.398 10 0 59616 35100.00000 0 -2094416.466 23637973.020 9211152.574 10 0 59616 36000.00000 0 -2060005.293 22302837.168 12101794.029 10 0 59616 36900.00000 0 -2191606.200 20633684.780 14755974.296 10 0 59616 37800.00000 0 -2527848.843 18680538.589 17121966.018 10 0 59616 38700.00000 0 -3097101.159 16502163.434 19153751.963 10 0 59616 39600.00000 0 -3916051.716 14163702.708 20811922.682 10 0 59616 40500.00000 0 -4988800.017 11734066.933 22064436.297 10 0 59616 41400.00000 0 -6306492.608 9283186.008 22887226.432 10 0 59616 42300.00000 0 -7847519.012 6879241.539 23264647.839 10 0 59616 43200.00000 0 -9578257.587 4585995.358 23189753.097 10 0 59616 44100.00000 0 -11454338.157 2460325.093 22664397.315 10 0 59616 45000.00000 0 -13422366.715 550067.993 21699171.240 10 0 59616 45900.00000 0 -15422038.658 -1107739.753 20313166.429 10 0 59616 46800.00000 0 -17388551.359 -2488158.170 18533579.161 10 0 59616 47700.00000 0 -19255215.111 -3579122.832 16395162.477 10 0 59616 48600.00000 0 -20956153.953 -4381679.813 13939538.263 10 0 59616 49500.00000 0 -22428984.851 -4909670.177 11214383.359 10 0 59616 50400.00000 0 -23617365.061 -5188880.376 8272505.769 10 0 59616 51300.00000 0 -24473303.441 -5255696.686 5170828.536 10 0 59616 52200.00000 0 -24959141.395 -5155321.758 1969300.210 10 0 59616 53100.00000 0 -25049122.807 -4939628.855 -1270248.021 10 0 59616 54000.00000 0 -24730489.177 -4664743.856 -4485277.868 10 0 59616 54900.00000 0 -24004055.467 -4388455.878 -7613731.015 10 0 59616 55800.00000 0 -22884243.176 -4167564.092 -10595206.469 10 0 59616 56700.00000 0 -21398569.074 -4055270.847 -13372107.209 10 0 59616 57600.00000 0 -19586609.980 -4098729.283 -15890735.727 10 0 59616 58500.00000 0 -17498485.091 -4336847.408 -18102318.794 10 0 59616 59400.00000 0 -15192916.889 -4798440.409 -19963942.950 10 0 59616 60300.00000 0 -12734948.714 -5500809.060 -21439383.653 10 0 59616 61200.00000 0 -10193411.301 -6448805.005 -22499812.422 10 0 59616 62100.00000 0 -7638240.994 -7634424.130 -23124368.340 10 0 59616 63000.00000 0 -5137758.820 -9036947.937 -23300582.184 10 0 59616 63900.00000 0 -2756021.944 -10623630.330 -23024643.752 10 0 59616 64800.00000 0 -550356.619 -12350904.816 -22301505.442 10 0 59616 65700.00000 0 1430824.888 -14166065.272 -21144817.854 10 0 59616 66600.00000 0 3149831.823 -16009353.141 -19576696.169 10 0 59616 67500.00000 0 4581050.341 -17816366.272 -17627319.232 10 0 59616 68400.00000 0 5711788.537 -19520690.024 -15334366.618 10 0 59616 69300.00000 0 6542573.895 -21056640.738 -12742302.560 10 0 59616 70200.00000 0 7086889.119 -22362005.729 -9901519.100 10 0 59616 71100.00000 0 7370356.298 -23380662.922 -6867354.292 10 0 59616 72000.00000 0 7429403.322 -24064967.367 -3699004.693 10 0 59616 72900.00000 0 7309469.265 -24377801.150 -458354.222 10 0 59616 73800.00000 0 7062825.989 -24294197.248 2791256.160 10 0 59616 74700.00000 0 6746110.336 -23802466.062 5986291.485 10 0 59616 75600.00000 0 6417674.396 -22904775.066 9064291.236 10 0 59616 76500.00000 0 6134869.395 -21617155.893 11965115.587 10 0 59616 77400.00000 0 5951381.661 -19968938.406 14632142.327 10 0 59616 78300.00000 0 5914736.611 -18001636.430 17013388.827 10 0 59616 79200.00000 0 6064078.869 -15767333.602 19062535.496 10 0 59616 80100.00000 0 6428324.035 -13326639.418 20739829.818 10 0 59616 81000.00000 0 7024760.891 -10746303.576 22012853.281 10 0 59616 81900.00000 0 7858162.739 -8096590.715 22857137.029 10 0 59616 82800.00000 0 8920444.229 -5448527.123 23256615.615 10 0 59616 83700.00000 0 10190876.422 -2871135.240 23203912.057 10 0 59616 84600.00000 0 11636849.031 -428771.211 22700450.926 10 0 59616 85500.00000 0 13215145.732 1821324.587 21756399.749 10 0 59617 0.00000 0 14873677.113 3831164.046 20390442.349 10 0 59617 900.00000 0 16553598.205 5563749.853 18629389.849 10 0 59617 1800.00000 0 18191718.959 6994344.517 16507640.588 10 0 59617 2700.00000 0 19723109.739 8111224.494 14066498.220 10 0 59617 3600.00000 0 21083791.348 8915889.064 11353363.715 10 0 59617 4500.00000 0 22213399.188 9422719.887 8420816.541 10 0 59617 5400.00000 0 23057711.761 9658108.261 5325602.647 10 0 59617 6300.00000 0 23570939.745 9659088.853 2127548.103 10 0 59617 7200.00000 0 23717681.916 9471538.448 -1111581.577 10 0 59617 8100.00000 0 23474467.908 9148015.750 -4329255.769 10 0 59617 9000.00000 0 22830824.664 8745332.595 -7463365.680 10 0 59617 9900.00000 0 21789822.734 8321957.556 -10453402.574 10 0 59617 10800.00000 0 20368079.600 7935359.687 -13241606.350 10 0 59617 11700.00000 0 18595219.066 7639402.434 -15774064.031 10 0 59617 12600.00000 0 16512807.726 7481895.829 -18001738.427 10 0 59617 13500.00000 0 14172810.613 7502408.769 -19881408.452 10 0 59617 14400.00000 0 11635627.564 7730432.875 -21376503.902 10 0 59617 15300.00000 0 8967789.093 8183975.415 -22457818.979 10 0 59617 16200.00000 0 6239404.538 8868641.606 -23104090.785 10 0 59617 17100.00000 0 3521465.770 9777246.928 -23302430.966 10 0 59617 18000.00000 0 883116.328 10889978.517 -23048600.925 10 0 59617 18900.00000 0 -1611002.113 12175102.215 -22347123.567 10 0 59617 19800.00000 0 -3903216.404 13590189.159 -21211227.188 10 0 59617 20700.00000 0 -5944998.866 15083813.800 -19662620.133 10 0 59617 21600.00000 0 -7698763.042 16597654.977 -17731097.974 10 0 59617 22500.00000 0 -9139201.903 18068913.927 -15453988.357 10 0 59617 23400.00000 0 -10254110.723 19432948.565 -12875442.171 10 0 59617 24300.00000 0 -11044658.464 20626013.200 -10045583.271 10 0 59617 25200.00000 0 -11525094.769 21587987.086 -7019532.376 10 0 59617 26100.00000 0 -11721903.991 22264974.633 -3856324.261 10 0 59617 27000.00000 0 -11672441.841 22611664.766 -617740.123 10 0 59617 27900.00000 0 -11423113.070 22593346.706 2632920.457 10 0 59617 28800.00000 0 -11027168.957 22187493.939 5832101.631 10 0 59617 29700.00000 0 -10542220.392 21384846.885 8917260.165 10 0 59617 30600.00000 0 -10027574.958 20189946.660 11828113.487 10 0 59617 31500.00000 0 -9541514.106 18621096.498 14507839.683 10 0 59617 32400.00000 0 -9138628.962 16709752.529 16904203.774 10 0 59617 33300.00000 0 -8867330.230 14499370.504 18970586.566 10 0 59617 34200.00000 0 -8767639.510 12043758.700 20666895.006 10 0 59617 35100.00000 0 -8869356.378 9405008.179 21960336.212 10 0 59617 36000.00000 0 -9190678.648 6651089.236 22826040.801 10 0 59617 36900.00000 0 -9737333.071 3853216.483 23247524.725 10 0 59617 37800.00000 0 -10502251.436 1083093.785 23216982.629 10 0 59617 38700.00000 0 -11465803.517 -1589845.685 22735409.301 10 0 59617 39600.00000 0 -12596574.688 -4101089.787 21812549.311 10 0 59617 40500.00000 0 -13852653.258 -6393479.447 20466678.224 10 0 59617 41400.00000 0 -15183371.621 -8419323.658 18724221.749 10 0 59617 42300.00000 0 -16531426.782 -10142112.534 16619222.027 10 0 59617 43200.00000 0 -17835290.787 -11537760.808 14192662.722 10 0 59617 44100.00000 0 -19031810.083 -12595333.770 11491666.727 10 0 59617 45000.00000 0 -20058885.703 -13317229.018 8568582.391 10 0 59617 45900.00000 0 -20858123.295 -13718809.715 5479975.662 10 0 59617 46800.00000 0 -21377343.760 -13827507.310 2285546.984 10 0 59617 47700.00000 0 -21572851.132 -13681433.049 -953007.123 10 0 59617 48600.00000 0 -21411364.589 -13327557.401 -4173167.158 10 0 59617 49500.00000 0 -20871535.082 -12819533.829 -7312777.363 10 0 59617 50400.00000 0 -19944984.094 -12215257.501 -10311224.802 10 0 59617 51300.00000 0 -18636821.277 -11574260.220 -13110589.791 10 0 59617 52200.00000 0 -16965618.734 -10955049.359 -15656747.248 10 0 59617 53100.00000 0 -14962841.699 -10412500.898 -17900399.162 10 0 59617 54000.00000 0 -12671757.168 -9995414.599 -19798019.617 10 0 59617 54900.00000 0 -10145863.212 -9744332.966 -21312695.091 10 0 59617 55800.00000 0 -7446901.234 -9689715.247 -22414844.261 10 0 59617 56700.00000 0 -4642530.527 -9850543.589 -23082803.423 10 0 59617 57600.00000 0 -1803758.563 -10233421.173 -23303265.616 10 0 59617 58500.00000 0 997768.904 -10832202.319 -23071563.756 10 0 59617 59400.00000 0 3692507.534 -11628172.830 -22391790.580 10 0 59617 60300.00000 0 6215671.364 -12590776.186 -21276750.904 10 0 59617 61200.00000 0 8509696.922 -13678858.285 -19747744.607 10 0 59617 62100.00000 0 10526411.471 -14842381.408 -17834181.986 10 0 59617 63000.00000 0 12228813.877 -16024537.679 -15573036.399 10 0 59617 63900.00000 0 13592391.920 -17164174.533 -13008142.734 10 0 59617 64800.00000 0 14605919.119 -18198430.418 -10189353.717 10 0 59617 65700.00000 0 15271695.839 -19065468.915 -7171569.572 10 0 59617 66600.00000 0 15605223.193 -19707194.094 -4013659.932 10 0 59617 67500.00000 0 15634322.840 -20071829.854 -777299.828 10 0 59617 68400.00000 0 15397740.050 -20116251.143 2474255.997 10 0 59617 69300.00000 0 14943290.213 -19807965.237 5677434.177 10 0 59617 70200.00000 0 14325629.246 -19126656.299 8769611.928 10 0 59617 71100.00000 0 13603745.029 -18065225.491 11690366.793 10 0 59617 72000.00000 0 12838279.175 -16630281.107 14382679.667 10 0 59617 72900.00000 0 12088795.761 -14842057.395 16794065.303 10 0 59617 73800.00000 0 11411115.477 -12733765.728 18877606.542 10 0 59617 74700.00000 0 10854830.172 -10350406.650 20592870.962 10 0 59617 75600.00000 0 10461104.232 -7747094.289 21906692.019 10 0 59617 76500.00000 0 10260855.938 -4986965.360 22793800.070 10 0 59617 77400.00000 0 10273394.848 -2138762.179 23237292.323 10 0 59617 78300.00000 0 10505571.074 725807.910 23228934.541 10 0 59617 79200.00000 0 10951469.989 3534825.780 22769290.902 10 0 59617 80100.00000 0 11592662.588 6218911.711 21867681.943 10 0 59617 81000.00000 0 12398998.267 8713861.076 20541973.819 10 0 59617 81900.00000 0 13329904.218 10963056.791 18818205.116 10 0 59617 82800.00000 0 14336134.874 12919560.808 16730060.293 10 0 59617 83700.00000 0 15361896.639 14547800.958 14318201.308 10 0 59617 84600.00000 0 16347258.136 15824786.539 11629471.140 10 0 59617 85500.00000 0 17230745.011 16740805.576 8715985.055 10 0 59618 0.00000 0 17952011.220 17299578.053 5634127.196 10 0 59618 900.00000 0 18454476.439 17517861.859 2443469.606 10 0 59618 1800.00000 0 18687819.724 17424529.355 -794362.226 10 0 59618 2700.00000 0 18610227.849 17059155.598 -4016862.289 10 0 59618 3600.00000 0 18190304.624 16470176.978 -7161830.236 10 0 59618 4500.00000 0 17408562.694 15712697.461 -10168551.228 10 0 59618 5400.00000 0 16258435.794 14846033.335 -12978948.186 10 0 59618 6300.00000 0 14746768.789 13931097.913 -15538685.953 10 0 59618 7200.00000 0 12893763.925 13027734.148 -17798207.557 10 0 59618 8100.00000 0 10732383.584 12192105.310 -19713683.928 10 0 59618 9000.00000 0 8307231.744 11474251.700 -21247859.753 10 0 59618 9900.00000 0 5672957.624 10915914.970 -22370779.549 10 0 59618 10800.00000 0 2892244.376 10548721.039 -23060380.013 10 0 59618 11700.00000 0 33462.963 10392798.387 -23302936.605 10 0 59618 12600.00000 0 -2831914.467 10455891.072 -23093354.532 10 0 59618 13500.00000 0 -5632036.921 10733005.758 -22435296.844 10 0 59618 14400.00000 0 -8297421.437 11206610.234 -21341144.983 10 0 59618 15300.00000 0 -10763611.178 11847377.945 -19831790.058 10 0 59618 16200.00000 0 -12973634.202 12615450.095 -17936256.355 10 0 59618 17100.00000 0 -14880159.655 13462164.664 -15691161.803 10 0 59618 18000.00000 0 -16447259.753 14332181.257 -13140023.775 10 0 59618 18900.00000 0 -17651702.017 15165913.028 -10332422.056 10 0 59618 19800.00000 0 -18483715.544 15902162.778 -7323034.303 10 0 59618 20700.00000 0 -18947197.334 16480850.555 -4170562.765 10 0 59618 21600.00000 0 -19059348.813 16845715.176 -936573.899 10 0 59618 22500.00000 0 -18849757.431 16946872.445 2315724.921 10 0 59618 23400.00000 0 -18358962.640 16743118.510 5522745.441 10 0 59618 24300.00000 0 -17636568.321 16203877.605 8621788.051 10 0 59618 25200.00000 0 -16738983.789 15310708.902 11552293.192 10 0 59618 26100.00000 0 -15726891.804 14058306.563 14257047.349 10 0 59618 27000.00000 0 -14662553.826 12454949.448 16683317.762 10 0 59618 27900.00000 0 -13607069.460 10522381.134 18783891.928 10 0 59618 28800.00000 0 -12617708.448 8295125.852 20518000.512 10 0 59618 29700.00000 0 -11745429.593 5819270.346 21852105.514 10 0 59618 30600.00000 0 -11032692.028 3150764.406 22760538.937 10 0 59618 31500.00000 0 -10511650.796 353313.125 23225980.807 10 0 59618 32400.00000 0 -10202811.369 -2504049.426 23239769.195 10 0 59618 33300.00000 0 -10114197.541 -5349602.754 22802038.459 10 0 59618 34200.00000 0 -10241064.915 -8111688.113 21921685.471 10 0 59618 35100.00000 0 -10566168.965 -10721448.332 20616166.920 10 0 59618 36000.00000 0 -11060573.395 -13115446.687 18911133.782 10 0 59618 36900.00000 0 -11684962.205 -15238057.925 16839911.920 10 0 59618 37800.00000 0 -12391398.250 -17043534.858 14442840.261 10 0 59618 38700.00000 0 -13125453.142 -18497667.820 11766480.184 10 0 59618 39600.00000 0 -13828618.486 -19578971.227 8862711.836 10 0 59618 40500.00000 0 -14440897.457 -20279351.226 5787734.671 10 0 59618 41400.00000 0 -14903468.746 -20604229.532 2600990.870 10 0 59618 42300.00000 0 -15161312.397 -20572120.680 -635968.458 10 0 59618 43200.00000 0 -15165688.867 -20213682.025 -3860653.783 10 0 59618 44100.00000 0 -14876368.831 -19570277.065 -7010823.330 10 0 59618 45000.00000 0 -14263521.486 -18692112.186 -10025663.670 10 0 59618 45900.00000 0 -13309182.942 -17636024.099 -12846943.715 10 0 59618 46800.00000 0 -12008243.252 -16463009.259 -15420121.634 10 0 59618 47700.00000 0 -10368910.036 -15235596.993 -17695384.794 10 0 59618 48600.00000 0 -8412627.695 -14015174.450 -19628604.078 10 0 59618 49500.00000 0 -6173453.107 -12859373.616 -21182185.135 10 0 59618 50400.00000 0 -3696910.796 -11819628.400 -22325800.646 10 0 59618 51300.00000 0 -1038371.701 -10939003.236 -23036989.503 10 0 59618 52200.00000 0 1738980.801 -10250384.002 -23301610.800 10 0 59618 53100.00000 0 4566516.512 -9775107.703 -23114142.673 10 0 59618 54000.00000 0 7372760.574 -9522089.752 -22477818.563 10 0 59618 54900.00000 0 10086126.452 -9487487.481 -21404596.086 10 0 59618 55800.00000 0 12637667.606 -9654916.460 -19914956.664 10 0 59618 56700.00000 0 14963733.882 -9996213.105 -18037537.179 10 0 59618 57600.00000 0 17008421.566 -10472713.906 -15808598.300 10 0 59618 58500.00000 0 18725713.470 -11036999.263 -13271337.605 10 0 59618 59400.00000 0 20081217.760 -11635029.511 -10475059.218 10 0 59618 60300.00000 0 21053430.490 -12208583.103 -7474215.099 10 0 59618 61200.00000 0 21634466.667 -12697892.989 -4327336.620 10 0 59618 62100.00000 0 21830227.384 -13044367.785 -1095877.918 10 0 59618 63000.00000 0 21659994.934 -13193279.841 2157004.891 10 0 59618 63900.00000 0 21155472.773 -13096303.176 5367712.543 10 0 59618 64800.00000 0 20359311.710 -12713790.374 8473472.321 10 0 59618 65700.00000 0 19323186.302 -12016688.870 11413590.993 10 0 59618 66600.00000 0 18105505.230 -10988012.850 14130663.670 10 0 59618 67500.00000 0 16768855.337 -9623806.670 16571712.637 10 0 59618 68400.00000 0 15377290.307 -7933558.107 18689232.103 10 0 59618 69300.00000 0 13993581.163 -5940044.002 20442117.353 10 0 59618 70200.00000 0 12676546.672 -3678615.561 21796459.946 10 0 59618 71100.00000 0 11478577.304 -1195954.627 22726194.058 10 0 59618 72000.00000 0 10443457.145 1451645.151 23213582.598 10 0 59618 72900.00000 0 9604574.414 4200398.736 23249535.574 10 0 59618 73800.00000 0 8983593.794 6981461.738 22833756.759 10 0 59618 74700.00000 0 8589643.676 9723571.748 21974718.251 10 0 59618 75600.00000 0 8419049.141 12355788.893 20689465.859 10 0 59618 76500.00000 0 8455618.513 14810222.263 19003261.283 10 0 59618 77400.00000 0 8671468.227 17024630.286 16949069.926 10 0 59618 78300.00000 0 9028348.590 18944789.140 14566905.647 10 0 59618 79200.00000 0 9479412.647 20526533.522 11903046.035 10 0 59618 80100.00000 0 9971352.592 21737387.845 9009133.810 10 0 59618 81000.00000 0 10446813.472 22557723.147 5941181.591 10 0 59618 81900.00000 0 10846983.109 22981394.442 2758498.626 10 0 59618 82800.00000 0 11114250.329 23015834.408 -477440.654 10 0 59618 83700.00000 0 11194821.174 22681601.392 -3704165.777 10 0 59618 84600.00000 0 11041184.713 22011401.727 -6859396.064 10 0 59618 85500.00000 0 10614326.296 21048627.492 -9882221.887 99